GOMX 1

Last updated on Sat Feb 09 2019 03:03:27 GMT+0000 (Coordinated Universal Time)

1 39430U 13066Q 19039.81789363 .00000190 00000-0 43841-4 0 9996 2 39430 97.7284 5.0571 0150335 304.2565 54.4480 14.59194946277663
UTC large
Height (km)
Speed (km/s)
/
Latitude / Longitude
Inclination (degrees)
Orbital Period (minutes)
Azimuth
Elevation
Range (km)
Doppler Factor

Next 0 passes for location: London (51.5072 / 0.1276)

Sorry there are no passes over London.
GOMX 1